Location: Devore Heights
(34.2372°N, 117.4156°W)
Time: 18:33:39
(UTC+00:00)

Vanguard 1 Rocket - Pass Details

Date: 17 September 2024
Orbit: 650 x 4218 km, 34.3° (Epoch: 04 October)

Event Time Altitude Azimuth Distance (km) Brightness Sun altitude
Rises 19:59:06 0° 281° (WNW) 8,452 12.3 57.4°
Reaches altitude 10° 20:09:24 10° 264° (W) 7,336 12.3 57.0°
Maximum altitude 20:20:37 15° 236° (WSW) 6,411 12.4 56.5°
Drops below altitude 10° 20:30:20 10° 207° (SSW) 6,142 12.4 55.8°
Sets 20:37:40 0° 186° (S) 6,429 12.2 55.2°
